Hourly Data Report for October 17, 2017

All times are specified in Local Standard Time (LST). Add 1 hour to adjust for Daylight Saving Time where and when it is observed.

GRAND MANAN SAR CS
NEW BRUNSWICK

44°42'43.400" N
66°48'06.900" W
78.20 m
8101925
71030
XGM

Download Data

Hourly Data (October 2017)
Hourly Data Report for October 17, 2017
Temp Definition
°C
Dew Point Temp Definition
°C
Rel Hum Definition
%
Wind Dir Definition
10's deg

Wind Spd Definition
km/h
Visibility Definition
km
Stn Press Definition
kPa
Hmdx Definition


Wind Chill Definition


Weather Definition


TIME
00:00 5.9 1.3 72 1 13   100.79     LegendNANA
01:00 5.0 1.5 78 36 11   100.88     LegendNANA
02:00 4.2 0.1 75 36 12   100.89     LegendNANA
03:00 3.9 -0.5 73 36 10   100.92     LegendNANA
04:00 3.5 0.8 82 34 10   100.98     LegendNANA
05:00 3.2 1.0 85 35 9   101.09     LegendNANA
06:00 3.1 1.2 87 34 9   101.14     LegendNANA
07:00 2.5 0.9 89 34 6   101.21     LegendNANA
08:00 4.6 0.9 77 35 9   101.25     LegendNANA
09:00 5.5 0.9 72 33 13   101.30     LegendNANA
10:00 6.6 -3.1 50 34 17   101.29     LegendNANA
11:00 7.4 -0.8 56 31 15   101.29     LegendNANA
12:00 8.7 -1.4 49 33 18   101.27     LegendNANA
13:00 9.0 -1.9 46 34 14   101.24     LegendNANA
14:00 9.7 -2.5 42 30 12   101.20     LegendNANA
15:00 10.4 -2.3 41 31 7   101.17     LegendNANA
16:00 10.5 -2.3 41 24 7   101.16     LegendNANA
17:00 8.3 0.7 59 23 10   101.18     LegendNANA
18:00 6.4 1.0 68 25 7   101.18     LegendNANA
19:00 5.6 1.9 77 22 7   101.21     LegendNANA
20:00 7.2 2.7 73 24 8   101.21     LegendNANA
21:00 7.5 3.5 76 24 9   101.24     LegendNANA
22:00 7.2 3.9 79 23 10   101.23     LegendNANA
23:00 7.7 4.2 78 24 12   101.22     LegendNANA

Notes on Data Quality.

Legend

  • E = Estimated
  • M = Missing
  • NA = Not Available
  • ‡ = Partner data that is not subject to review by the National Climate Archives
Date modified: